Elmira, NY

1:29 AM EDT on October 23, 2019 (GMT -0400)
Elmira-Corning Regional

Weather History for KELM - September, 2019

Change the Weather History Date:

Wednesday, September 18, 2019

  Actual Average Record
Temperature  
Mean Temperature 57 °F -  
Max Temperature 73 °F 73 °F 88 °F (1948)
Min Temperature 41 °F 48 °F 32 °F (1959)
Degree Days  
Heating Degree Days 8    
Growing Degree Days 7 (Base 50)    
Moisture  
Dew Point 46 °F    
Average Humidity 87    
Maximum Humidity 100    
Minimum Humidity 38    
Precipitation  
Precipitation 0.00 in - - ()
Sea Level Pressure  
Sea Level Pressure 30.27 in    
Wind  
Wind Speed 2 mph (NW)    
Max Wind Speed 9 mph    
Max Gust Speed -    
Visibility 4 miles    
Events Fog    
Averages and records for this station are not official NWS values.
T = Trace of Precipitation, MM = Missing Value Source: NWS Daily Summary

Daily Weather History Graph

Daily Weather History Graph

Search for Another Location

Airport or City:

Astronomy

Sep. 18, 2019 Rise Set
Actual Time 6:50 AM EDT 7:12 PM EDT
Civil Twilight 6:22 AM EDT 7:40 PM EDT
Nautical Twilight 5:49 AM EDT 8:13 PM EDT
Astronomical Twilight 5:15 AM EDT 8:46 PM EDT
Moon 9:40 PM EDT (9/18) 10:55 AM EDT (9/18)
Length of Visible Light 13h 17m
Length of Day
12h 21m
Waning Gibbous, 82% of the Moon is Illuminated
Sep 18
Waning Gibbous
Sep 21
Last Quarter
Sep 28
New
Oct 5
First Quarter
Oct 13
Full

Hourly Weather History & Observations

Time (EDT) Temp. Windchill Dew Point Humidity Pressure Visibility Wind Dir Wind Speed Gust Speed Precip Events Conditions
12:53 AM 46.9 °F - 46.0 °F 97% 30.23 in 10.0 mi Calm Calm - N/A   Clear
1:53 AM 46.0 °F - 44.1 °F 93% 30.24 in 10.0 mi Calm Calm - N/A   Clear
2:53 AM 41.0 °F - 41.0 °F 100% 30.24 in 3.0 mi Calm Calm - N/A   Clear
2:57 AM 43.0 °F - 42.1 °F 97% 30.24 in 1.0 mi Calm Calm - N/A   Mist
3:04 AM 43.0 °F - 42.1 °F 97% 30.24 in 0.5 mi Calm Calm - N/A Fog Fog
3:09 AM 43.0 °F - 42.1 °F 97% 30.24 in 1.0 mi Calm Calm - N/A   Mist
3:12 AM 42.1 °F - 42.1 °F 100% 30.24 in 2.5 mi Calm Calm - N/A   Scattered Clouds
3:19 AM 42.1 °F - 42.1 °F 100% 30.24 in 4.0 mi Calm Calm - N/A   Scattered Clouds
3:27 AM 41.0 °F 39.0 °F 41.0 °F 100% 30.24 in 0.8 mi West 3.5 mph - N/A   Mostly Cloudy
3:36 AM 44.1 °F - 43.0 °F 96% 30.24 in 1.2 mi Calm Calm - N/A   Scattered Clouds
3:39 AM 45.0 °F - 44.1 °F 97% 30.24 in 4.0 mi Calm Calm - N/A   Partly Cloudy
3:45 AM 44.1 °F - 44.1 °F 100% 30.24 in 1.5 mi Calm Calm - N/A   Partly Cloudy
3:47 AM 44.6 °F - 44.6 °F 100% 30.24 in 0.8 mi Calm Calm - N/A   Mist
3:53 AM 43.0 °F - 43.0 °F 100% 30.24 in 0.5 mi Calm Calm - N/A Fog Fog
4:10 AM 45.0 °F - 44.1 °F 97% 30.25 in 0.2 mi Calm Calm - N/A Fog Fog
4:53 AM 46.0 °F - 46.0 °F 100% 30.25 in 0.2 mi Calm Calm - N/A Fog Fog
5:34 AM 46.9 °F - 46.9 °F 100% 30.26 in 0.2 mi WNW 3.5 mph - N/A Fog Fog
5:49 AM 48.2 °F - 46.4 °F 93% 30.27 in 0.5 mi SW 5.8 mph - N/A Fog Fog
5:53 AM 48.0 °F - 46.9 °F 96% 30.27 in 0.5 mi SW 5.8 mph - N/A Fog Fog
6:09 AM 46.9 °F - 46.9 °F 100% 30.27 in 0.2 mi WSW 3.5 mph - N/A Fog Fog
6:22 AM 46.9 °F - 46.9 °F 100% 30.27 in 0.2 mi West 4.6 mph - N/A Fog Fog
6:40 AM 46.9 °F - 46.9 °F 100% 30.28 in 0.2 mi Calm Calm - N/A Fog Fog
6:53 AM 46.9 °F - 46.9 °F 100% 30.29 in 0.2 mi Calm Calm - N/A Fog Fog
7:28 AM 46.9 °F - 46.9 °F 100% 30.29 in 0.2 mi WNW 3.5 mph - N/A Fog Fog
7:53 AM 46.9 °F - 46.9 °F 100% 30.30 in 0.2 mi WNW 4.6 mph - N/A Fog Fog
8:09 AM 46.9 °F - 46.9 °F 100% 30.29 in 0.2 mi WNW 3.5 mph - N/A Fog Fog
8:19 AM 48.0 °F - 48.0 °F 100% 30.30 in 0.2 mi West 3.5 mph - N/A Fog Fog
8:53 AM 48.0 °F - 48.0 °F 100% 30.31 in 0.2 mi SW 3.5 mph - N/A Fog Fog
9:04 AM 48.0 °F - 48.0 °F 100% 30.30 in 0.5 mi SW 3.5 mph - N/A Fog Fog
9:27 AM 48.9 °F - 48.9 °F 100% 30.30 in 3.0 mi Calm Calm - N/A   Overcast
9:53 AM 51.1 °F - 50.0 °F 96% 30.32 in 10.0 mi Calm Calm - N/A   Mostly Cloudy
10:08 AM 53.1 °F - 51.1 °F 93% 30.30 in 10.0 mi Calm Calm - N/A   Scattered Clouds
10:53 AM 59.0 °F - 51.1 °F 75% 30.30 in 10.0 mi Calm Calm - N/A   Clear
11:53 AM 66.9 °F - 48.0 °F 51% 30.28 in 10.0 mi ENE 5.8 mph - N/A   Clear
12:53 PM 68.0 °F - 50.0 °F 52% 30.27 in 10.0 mi Variable 3.5 mph - N/A   Clear
1:53 PM 72.0 °F - 46.9 °F 41% 30.27 in 10.0 mi East 9.2 mph - N/A   Clear
2:53 PM 73.0 °F - 46.0 °F 38% 30.25 in 10.0 mi ENE 6.9 mph - N/A   Clear
3:53 PM 73.0 °F - 46.9 °F 39% 30.25 in 10.0 mi ENE 9.2 mph - N/A   Clear
4:53 PM 71.1 °F - 45.0 °F 39% 30.25 in 10.0 mi ENE 8.1 mph - N/A   Clear
5:53 PM 70.0 °F - 48.9 °F 47% 30.25 in 10.0 mi North 6.9 mph - N/A   Clear
6:53 PM 64.9 °F - 48.9 °F 56% 30.26 in 10.0 mi NE 4.6 mph - N/A   Clear
7:53 PM 60.1 °F - 50.0 °F 69% 30.27 in 10.0 mi East 3.5 mph - N/A   Clear
8:53 PM 54.0 °F - 48.0 °F 80% 30.29 in 10.0 mi Calm Calm - N/A   Clear
9:53 PM 51.1 °F - 48.0 °F 89% 30.31 in 10.0 mi WNW 3.5 mph - N/A   Clear
10:53 PM 46.9 °F - 46.0 °F 97% 30.31 in 10.0 mi North 3.5 mph - N/A   Clear
11:53 PM 46.9 °F - 46.0 °F 97% 30.31 in 10.0 mi Calm Calm - N/A   Clear